Location: Marcé
(47.5801°N, 0.3280°W)
Time: 00:16:32
(UTC+01:00)

Vanguard 2 - Pass Details

Date: 01 December 2021
Orbit: 554 x 2935 km, 32.9° (Epoch: 28 January)

Event Time Altitude Azimuth Distance (km) Brightness Sun altitude
Rises 20:28:55 0° 260° (W) 4,557 12.5 -32.4°
Reaches altitude 10° 20:32:49 10° 243° (WSW) 3,970 11.8 -33.1°
Maximum altitude 20:39:46 19° 204° (SSW) 3,891 11.2 -34.2°
Drops below altitude 10° 20:48:38 10° 166° (SSE) 5,227 11.6 -35.7°
Enters shadow 20:52:46 - 157° (SSE) 6,067 11.8 -36.4°
